Simultaneous Nadir Overpasses (SNOs) Predictions

Prediction of SNOs between GOES-16 and METOP-C Satellite Orbit:

Table of predicted SNOs for the next 14.0 days since TLE Epoch: 6/17/2023
Index Date Time (GOES-16) GOES-16 Lat,Lon METOP-C Lat,Lon Distance(km) Time Diff (sec)
1 06/18/2023 02:35:47 0.00, -75.20 -0.17, -76.07 98.48 80
2 06/19/2023 02:12:28 0.01, -75.21 0.93, -71.08 470.83 80
3 06/20/2023 14:33:59 -0.02, -75.22 0.06, -75.64 47.49 80
4 06/23/2023 02:32:21 0.03, -75.25 0.03, -75.25 0.79 80
5 06/25/2023 14:27:53 -0.04, -75.29 -0.15, -74.83 52.86 80
6 06/27/2023 02:49:33 0.03, -75.31 -0.91, -79.42 468.82 80
7 06/28/2023 02:26:15 0.04, -75.33 0.26, -74.44 102.16 80
8 06/29/2023 14:47:45 -0.03, -75.36 0.79, -78.99 413.98 80
9 06/30/2023 14:24:26 -0.04, -75.38 -0.33, -74.00 156.94 80
